User: anonymous   Login
Location: Blue Mountain Vista Observatory
(40.6992°N, 75.9422°W)
Time: 20:15:06
(UTC-04:00)
Language:

Cosmos 1222 Rocket - Orbit

View from above orbital plane
View from above orbital plane
View from above satellite
View from above satellite

Ground track
Ground track

The orbit data is extracted from the following two-line orbital elements,

1 12072U 80093B   15108.45785989  .13047776 -97904-6  15384-3 0  9997
2 12072 081.1427 300.9777 0011653 255.3214 105.4576 16.49510625894073
Epoch (UTC): 18 April 2015 10:59:19
Eccentricity: 0.0011653
inclination: 81.1427°
perigee height: 133 km
apogee height: 148 km
right ascension of ascending node: 300.9777°
argument of perigee: 255.3214°
revolutions per day: 16.49510625
mean anomaly at epoch: 105.4576°
orbit number at epoch: 89407

The dashed part of the orbit path shows where the satellite is in the earth's shadow,  

DLR